Location: Old Broadwell Mill Observatory
(33.8015°N, 85.8137°W)
Time: 11:34:20
(UTC-05:00)

Gurwin Techsat 1B - Visible Passes

Search period start: 20 April 2018 00:00
Search period end: 30 April 2018 00:00
Orbit: 812 x 814 km, 98.6° (Epoch: 19 April)

Date Brightness Start Highest point End Pass type
(mag) Time Alt. Az. Time Alt. Az. Time Alt. Az.
20 Apr 11.1 01:50:41 10° NE 01:52:02 17° NE 01:52:02 17° NE visible
20 Apr 10.3 03:30:50 10° NNW 03:33:14 21° NW 03:33:14 21° NW visible
21 Apr 11.4 01:28:44 10° NE 01:29:01 11° NE 01:29:01 11° NE visible
21 Apr 10.1 03:07:31 10° N 03:10:14 28° NNW 03:10:14 28° NNW visible
22 Apr 10.1 02:44:28 10° N 02:47:13 31° N 02:47:13 31° N visible
23 Apr 10.4 02:21:41 10° NNE 02:24:12 29° NNE 02:24:12 29° NNE visible
23 Apr 10.7 04:03:53 10° NW 04:05:25 13° NW 04:05:25 13° NW visible
24 Apr 10.7 01:59:09 10° NNE 02:01:11 22° NE 02:01:11 22° NE visible
24 Apr 10.3 03:39:46 10° NNW 03:42:24 20° NW 03:42:24 20° NW visible
25 Apr 11.1 01:36:58 10° NE 01:38:09 15° NE 01:38:09 15° NE visible
25 Apr 10.0 03:16:19 10° N 03:19:22 28° NNW 03:19:22 28° NNW visible
26 Apr 9.8 02:53:10 10° N 02:56:21 36° N 02:56:21 36° N visible
27 Apr 10.0 02:30:17 10° NNE 02:33:20 36° NNE 02:33:20 36° NNE visible
27 Apr 10.8 04:13:42 10° NW 04:14:33 11° WNW 04:14:33 11° WNW visible
28 Apr 10.4 02:07:38 10° NNE 02:10:18 28° NE 02:10:18 28° NE visible
28 Apr 10.4 03:48:46 10° NNW 03:51:31 18° NW 03:51:31 18° NW visible
29 Apr 10.8 01:45:18 10° NE 01:47:17 20° NE 01:47:17 20° NE visible
29 Apr 10.0 03:25:09 10° N 03:28:30 27° NW 03:28:30 27° NW visible
